User: anonymous   Login
Location: Theydon Bois
(51.6750°N, 0.1050°E)
Time: 15:21:29
(UTC+00:00)
Language:

Meteor 1-16 Rocket - Orbit

View from above orbital plane
View from above orbital plane
View from above satellite
View from above satellite

Ground track
Ground track

The orbit data is extracted from the following two-line orbital elements,

1  7210U 74011B   17344.87244017 +.00000049 +00000-0 +19188-4 0  9999
2  7210 081.2380 234.5437 0080040 235.1557 124.2071 14.13047197254670
Epoch (UTC): 10 December 2017 20:56:18
Eccentricity: 0.0080040
inclination: 81.2380°
perigee height: 791 km
apogee height: 907 km
right ascension of ascending node: 234.5437°
argument of perigee: 235.1557°
revolutions per day: 14.13047197
mean anomaly at epoch: 124.2071°
orbit number at epoch: 25467

The dashed part of the orbit path shows where the satellite is in the earth's shadow,  

DLR